BER7325 MDPC-EDDB

Flight info

Callsign BER7325
Flight time N/A
Altitude 37000
Route CHUMA2W CHUMA DCT JANMA DCT HANCY/M082F370 DCT NUBUS DCT DUPAN DCT KOZIK DCT 3160N DCT 3655N DCT 4050N DCT 4345N/M082F390 DCT 4640N DCT 4930N DCT 5120N DCT ADARA/N0462F390 DCT LEKVA DCT EVRIN DCT BRAIN M197 REDFA DCT SPY N873 GRONY DCT WSN Z612 GESTO Z870 BKD L619 PITEN DCT OGBER OGBER1R
Aircraft A332/H-SDE3GHIJ2J3J5M1RVWXY/LB2D1

Departure

Time 2026-04-28 23:24
Airport Punta Cana International Airport (MDPC)

Arrival

Time N/A
Airport Berlin Brandenburg Airport (EDDB)
Time Latitude Longitude Altitude Speed Heading
2026-04-28 22:37 18.56371 -68.36511 54 ft 0 kts 175°
2026-04-28 23:13 18.56374 -68.36511 54 ft 3 kts 175°
2026-04-28 23:13 18.56400 -68.36513 46 ft 3 kts 175°
2026-04-28 23:14 18.56422 -68.36515 46 ft 4 kts 188°
2026-04-28 23:14 18.56445 -68.36505 46 ft 4 kts 230°
2026-04-28 23:14 18.56454 -68.36482 48 ft 4 kts 265°
2026-04-28 23:14 18.56456 -68.36459 50 ft 2 kts 265°
2026-04-28 23:15 18.56456 -68.36458 50 ft 0 kts 265°
2026-04-28 23:16 18.56456 -68.36459 50 ft 0 kts 265°
2026-04-28 23:17 18.56456 -68.36465 48 ft 2 kts 265°
2026-04-28 23:17 18.56453 -68.36493 46 ft 6 kts 265°
2026-04-28 23:17 18.56451 -68.36545 51 ft 9 kts 273°
2026-04-28 23:17 18.56477 -68.36612 51 ft 11 kts 305°
2026-04-28 23:18 18.56519 -68.36691 50 ft 13 kts 289°
2026-04-28 23:18 18.56520 -68.36787 50 ft 13 kts 264°
2026-04-28 23:18 18.56512 -68.36882 50 ft 13 kts 265°
2026-04-28 23:18 18.56504 -68.36977 48 ft 13 kts 265°
2026-04-28 23:19 18.56495 -68.37084 50 ft 15 kts 264°
2026-04-28 23:19 18.56485 -68.37194 54 ft 15 kts 264°
2026-04-28 23:19 18.56476 -68.37302 48 ft 15 kts 265°
2026-04-28 23:19 18.56467 -68.37407 52 ft 15 kts 265°
2026-04-28 23:20 18.56458 -68.37520 49 ft 16 kts 265°
2026-04-28 23:20 18.56448 -68.37637 50 ft 16 kts 265°
2026-04-28 23:20 18.56444 -68.37734 52 ft 11 kts 281°
2026-04-28 23:20 18.56489 -68.37782 50 ft 9 kts 344°
2026-04-28 23:21 18.56559 -68.37788 49 ft 12 kts 355°
2026-04-28 23:21 18.56652 -68.37799 53 ft 14 kts 348°
2026-04-28 23:21 18.56708 -68.37867 51 ft 13 kts 294°
2026-04-28 23:21 18.56748 -68.37962 49 ft 16 kts 294°
2026-04-28 23:22 18.56795 -68.38073 49 ft 17 kts 294°
2026-04-28 23:22 18.56842 -68.38185 50 ft 14 kts 294°
2026-04-28 23:22 18.56881 -68.38242 52 ft 9 kts 324°
2026-04-28 23:22 18.56937 -68.38265 52 ft 10 kts 343°
2026-04-28 23:23 18.57019 -68.38281 55 ft 12 kts
2026-04-28 23:23 18.57053 -68.38214 50 ft 12 kts 75°
2026-04-28 23:23 18.57091 -68.38076 49 ft 37 kts 73°
2026-04-28 23:23 18.57220 -68.37608 50 ft 94 kts 73°
2026-04-28 23:24 18.57450 -68.36772 50 ft 142 kts 74°
2026-04-28 23:24 18.57763 -68.35634 143 ft 174 kts 74°
2026-04-28 23:24 18.58100 -68.34422 737 ft 169 kts 73°
2026-04-28 23:24 18.58432 -68.33252 1367 ft 165 kts 72°
2026-04-28 23:25 18.58762 -68.32044 1610 ft 179 kts 72°
2026-04-28 23:25 18.59427 -68.30903 1796 ft 192 kts 40°
2026-04-28 23:25 18.60713 -68.30421 1941 ft 211 kts 356°
2026-04-28 23:25 18.62202 -68.30775 2172 ft 228 kts 347°
2026-04-28 23:26 18.63807 -68.31134 2434 ft 244 kts 352°
2026-04-28 23:26 18.65533 -68.31376 2778 ft 256 kts 354°
2026-04-28 23:26 18.67332 -68.31600 3291 ft 263 kts 354°
2026-04-28 23:26 18.69164 -68.31836 3863 ft 267 kts 354°
2026-04-28 23:27 18.71016 -68.32083 4488 ft 270 kts 354°
2026-04-28 23:27 18.72892 -68.32339 5099 ft 273 kts 354°
2026-04-28 23:27 18.74782 -68.32600 5724 ft 275 kts 354°
2026-04-28 23:27 18.76693 -68.32865 6372 ft 278 kts 353°
2026-04-28 23:28 18.78617 -68.33133 6977 ft 280 kts 353°
2026-04-28 23:28 18.80560 -68.33404 7588 ft 283 kts 353°
2026-04-28 23:28 18.82522 -68.33677 8219 ft 286 kts 352°
2026-04-28 23:28 18.84504 -68.33954 8866 ft 289 kts 352°
2026-04-28 23:29 18.86505 -68.34233 9514 ft 292 kts 351°
2026-04-28 23:29 18.88527 -68.34516 10127 ft 295 kts 351°
2026-04-28 23:29 18.90612 -68.34808 10432 ft 310 kts 351°
2026-04-28 23:29 18.92807 -68.35116 10669 ft 326 kts 351°
2026-04-28 23:30 18.95113 -68.35439 10905 ft 342 kts 351°
2026-04-28 23:30 18.97524 -68.35776 11126 ft 356 kts 351°
2026-04-28 23:30 19.00025 -68.36126 11321 ft 370 kts 351°
2026-04-28 23:30 19.02617 -68.36488 11572 ft 380 kts 351°
2026-04-28 23:31 19.05260 -68.36857 11964 ft 385 kts 351°
2026-04-28 23:31 19.07896 -68.37225 12422 ft 389 kts 351°
2026-04-28 23:31 19.10586 -68.37601 12891 ft 391 kts 351°
2026-04-28 23:31 19.13329 -68.37985 13349 ft 394 kts 351°
2026-04-28 23:32 19.16023 -68.38349 13808 ft 397 kts 353°
2026-04-28 23:32 19.18796 -68.38445 14213 ft 401 kts
2026-04-28 23:32 19.21566 -68.37982 14612 ft 406 kts 14°
2026-04-28 23:32 19.24211 -68.36908 15002 ft 410 kts 26°
2026-04-28 23:33 19.26625 -68.35277 15400 ft 414 kts 35°
2026-04-28 23:33 19.28902 -68.33387 15778 ft 418 kts 39°
2026-04-28 23:33 19.31118 -68.31379 16167 ft 420 kts 40°
2026-04-28 23:33 19.33308 -68.29320 16533 ft 423 kts 41°
2026-04-28 23:34 19.35511 -68.27234 16892 ft 426 kts 40°
2026-04-28 23:34 19.37732 -68.25144 17259 ft 428 kts 40°
2026-04-28 23:34 19.39977 -68.23053 17620 ft 431 kts 40°
2026-04-28 23:34 19.42245 -68.20958 17954 ft 434 kts 40°
2026-04-28 23:35 19.44531 -68.18858 18296 ft 437 kts 39°
2026-04-28 23:35 19.46839 -68.16744 18532 ft 441 kts 39°
2026-04-28 23:35 19.49167 -68.14615 18808 ft 443 kts 39°
2026-04-28 23:35 19.51511 -68.12469 19084 ft 446 kts 39°
2026-04-28 23:36 19.53862 -68.10317 19373 ft 448 kts 39°